sat.trackr.live / text

‹ back to catalog

STARLINK-1554

NORAD 46055 · 2020-055AE

PAYLOAD ACTIVE UNKNOWN

§ Identity

Operator
Country
US
Launch date
2020-08-07
Launch site
AFETR
Launch vehicle
Mass (kg)
RCS (m²)

Purposes: comms

External: N2YO · Heavens-Above · Gunter

§ Orbital elements

Epoch: 2026-09-19T15:23:24.552960Z

Period
94.01 min
Inclination
53.1602°
Eccentricity
0.0001151
Mean motion
15.31714018 rev/d
Perigee alt
469.9 km
Apogee alt
471.5 km
Semi-major
6,848.8 km
B*
3.7484e-5
RAAN
291.4234°
Arg perigee
86.9763°
Mean anomaly
273.1370°
Rev number
33,879

§ Raw data

STARLINK-15541 46055U 20055AE  26262.64125640  .00000799  00000+0  37484-4 0  99922 46055  53.1602 291.4234 0001151  86.9763 273.1370 15.31714018338795

JSON: /api/v1/satellites/46055 · /tle

For live sub-satellite position, see the globe view (requires WebGL).

§ Visibility from observer

Set your observer location to see the next 7 days of passes ≥ 10°. The values pass through the URL so the page stays shareable.

No JS? Fill the form by hand. The geolocation button needs JavaScript.